Location: Arboucave
(43.6130°N, 0.4343°W)
Time: 12:29:28
(UTC+00:00)

Cosmos 2061 Rocket - Pass Details

Date: 17 November 2025
Orbit: 964 x 1012 km, 82.9° (Epoch: 10 December)

Event Time Altitude Azimuth Distance (km) Brightness Sun altitude
Rises 17:00:36 0° 178° (S) 3,697 7.3 -5.1°
Reaches altitude 10° 17:03:08 10° 176° (S) 2,745 6.6 -5.6°
Maximum altitude 17:09:22 71° 95° (E) 1,039 4.0 -6.6°
Drops below altitude 10° 17:15:36 10° 12° (NNE) 2,730 6.0 -7.7°
Sets 17:18:06 0° 11° (N) 3,676 6.7 -8.1°
